Regional Weather Roundup
Issued by NWS

Home | Current Version | Previous Version | Graphics & Text | Print | Product List | Glossary On
Versions: 1 2 3 4 5 6 7 8 9 10 11 12 13 14 15 16 17 18 19 20 21 22 23 24 25 26 27 28 29 30 31 32 33 34 35 36 37 38 39 40 41 42 43 44 45 46 47 48 49 50
000
ASUS43 KLSX 281759
RWRMO

WEATHER SUMMARY FOR MISSOURI
NATIONAL WEATHER SERVICE SPRINGFIELD MO
100 PM CDT TUE MAR 28 2017

NOTE: "FAIR" INDICATES FEW OR NO CLOUDS BELOW 12,000 FEET WITH NO
       SIGNIFICANT WEATHER AND/OR OBSTRUCTIONS TO VISIBILITY.
       CURRENT SKY AND/OR WEATHER CONDITIONS ARE NOT AVAILABLE FOR
       CHILLICOTHE AND FARMINGTON.

MOZ001>031-035>038-043-044-053-054-281900-
...NORTHERN AND WESTERN MISSOURI...

CITY           SKY/WX    TMP DP  RH WIND       PRES   REMARKS
KANSAS CTY INT CLOUDY    51  49  92 E8        30.07F
6HR MIN TEMP:  48; 6HR MAX TEMP:  52; 6HR PCP: TRACE;

KANSAS C DTWN  CLOUDY    53  49  86 NE9       30.07F
6HR MIN TEMP:  49; 6HR MAX TEMP:  53;

LEE`S SUMMIT   CLOUDY    51  49  92 NE8       30.07F
6HR MIN TEMP:  48; 6HR MAX TEMP:  51;

ST JOSEPH      CLOUDY    51  48  89 NE9       30.09F
6HR MIN TEMP:  47; 6HR MAX TEMP:  52;

CHILLICOTHE      N/A     51  49  92 NE5       30.12F
6HR MIN TEMP:  48; 6HR MAX TEMP:  51;

KIRKSVILLE     CLOUDY    54  49  83 NE6       30.11F
6HR MIN TEMP:  47; 6HR MAX TEMP:  54;


$$
MOZ066>068-077>081-088>096-101>105-281900-
...SOUTHWEST MISSOURI...

CITY           SKY/WX    TMP DP  RH WIND       PRES   REMARKS
SPRINGFIELD    CLOUDY    58  50  75 E9        30.03F
6HR MIN TEMP:  50; 6HR MAX TEMP:  59;

JOPLIN         CLOUDY    56  50  80 SE12      30.02F
6HR MIN TEMP:  51; 6HR MAX TEMP:  56;

BRANSON        PTSUNNY   61  50  67 S7        30.05F

$$
MOZ032>034-039>042-045>050-055>058-069>072-281900-
...CENTRAL MISSOURI...

CITY           SKY/WX    TMP DP  RH WIND       PRES   REMARKS
COLUMBIA       CLOUDY    54  50  86 SE6       30.09F
6HR MIN TEMP:  50; 6HR MAX TEMP:  54;

JEFFERSON CITY CLOUDY    57  49  74 SE6       30.09F
6HR MIN TEMP:  53; 6HR MAX TEMP:  57;

ROLLA          CLOUDY    55  49  80 E7        30.08S
6HR MIN TEMP:  50; 6HR MAX TEMP:  55;

SEDALIA        CLOUDY    55  51  86 E7        30.09F
6HR MIN TEMP:  50; 6HR MAX TEMP:  55;

WARRENSBURG    CLOUDY    52  50  93 NE8       30.07F FOG
OSAGE BEACH    CLOUDY    58  51  78 E8        30.08F

$$
MOZ051-052-059>065-281900-
...EAST CENTRAL MISSOURI...

CITY           SKY/WX    TMP DP  RH WIND       PRES   REMARKS
ST LOUIS INTL  CLOUDY    57  48  72 CALM      30.10S
6HR MIN TEMP:  53; 6HR MAX TEMP:  57; 6HR PCP: TRACE;

SPIRIT OF STL  CLOUDY    56  49  77 SW3       30.10R
6HR MIN TEMP:  52; 6HR MAX TEMP:  56;

ST CHARLES     CLOUDY    57  49  74 N3        30.10R
6HR MIN TEMP:  52; 6HR MAX TEMP:  57;


$$
MOZ072>076-082>087-097>100-106>115-281900-
...SOUTH CENTRAL AND SOUTHEAST MISSOURI...

CITY           SKY/WX    TMP DP  RH WIND       PRES   REMARKS
CAPE GIRARDEAU CLOUDY    58  51  78 W7        30.08S
6HR MIN TEMP:  55; 6HR MAX TEMP:  58;

FARMINGTON     CLOUDY    54  49  83 NE5       30.09F
6HR MIN TEMP:  51; 6HR MAX TEMP:  54; 6HR PCP: TRACE;

POPLAR BLUFF   CLOUDY    61  53  75 VRB6      30.07S
6HR MIN TEMP:  54; 6HR MAX TEMP:  61;

WEST PLAINS    CLOUDY    61  51  70 E6        30.06F
6HR MIN TEMP:  53; 6HR MAX TEMP:  61;


$$



USA.gov is the U.S. government's official web portal to all federal, state and local government web resources and services.